User: anonymous   Login
Location: Lewisville
(33.0462°N, 96.9942°W)
Time: 22:03:32
(UTC-06:00)
Language:

LightSail 2 - Orbit

View from above orbital plane
View from above orbital plane
View from above satellite
View from above satellite

Ground track
Ground track

The orbit data is extracted from the following two-line orbital elements,

1 44420U 19036AC  22019.64566007  .00034706  00000-0  63391-2 0  9995
2 44420  24.0042  15.0548 0020014  91.3692 268.9095 14.64450929135279
Epoch (UTC): 19 January 2022 15:29:45
Eccentricity: 0.0020014
inclination: 24.0042°
perigee height: 665 km
apogee height: 693 km
right ascension of ascending node: 15.0548°
argument of perigee: 91.3692°
revolutions per day: 14.64450929
mean anomaly at epoch: 268.9095°
orbit number at epoch: 13527

The dashed part of the orbit path shows where the satellite is in the earth's shadow,  

DLR